Terminal Aerodrome Forecast
Issued by NWS Green Bay, WI

Home | Current Version | Previous Version | Graphics & Text | Print | Product List | Glossary On
Versions: 1 2 3 4 5 6 7 8 9 10 11 12 13 14 15 16 17 18 19 20 21 22 23 24 25 26 27 28 29 30 31 32 33 34 35 36 37 38 39 40 41 42 43 44 45 46 47 48 49 50
855
FTUS43 KGRB 161028 AAB
TAFGRB
TAF AMD
KGRB 161028Z 1610/1706 06003KT P6SM SCT012 BKN250
      TEMPO 1610/1614 4SM BR SCT009 BKN012
     FM161400 07008KT P6SM SCT120 BKN250
     FM170200 08007KT P6SM SCT035 OVC060 PROB30 1703/1706 -SHRA
      BKN035=

USA.gov is the U.S. government's official web portal to all federal, state and local government web resources and services.